Hourly Data Report for April 16, 2020

TORONTO CITY
ONTARIO
Current Station Operator: ECCC - MSC

43°40'00.000" N
79°24'00.000" W
112.50 m
6158355
71508
XTO

Download Data

Hourly Data (April 2020)
Hourly Data Report for April 16, 2020
TIME
LST
Temp Definition
°C
Dew Point Definition
°C
Rel Hum Definition
%
Precip. Amount Definition
mm

Wind Dir Definition
10's deg

Wind Spd Definition
km/h
Visibility Definition
km
Stn Press Definition
kPa
Hmdx Definition


Wind Chill Definition


Weather Definition


00:00 -0.9 -11.0 46 0.0       100.41     LegendNANA
01:00 -1.2 -9.8 52 0.0       100.44     LegendNANA
02:00 -1.3 -9.3 55 0.0       100.45     LegendNANA
03:00 -1.4 -8.6 58 0.0       100.49     LegendNANA
04:00 -1.6 -8.2 61 0.0       100.52     LegendNANA
05:00 -1.8 -8.0 62 0.0       100.53     LegendNANA
06:00 -2.0 -7.4 66 0.0       100.58     LegendNANA
07:00 -0.3 -7.4 58 0.3       100.65     LegendNANA
08:00 1.2 -8.7 48 0.0       100.68     LegendNANA
09:00 2.8 -7.6 46 0.0       100.67     LegendNANA
10:00 3.3 -10.2 37 0.0       100.67     LegendNANA
11:00 3.5 -4.8 55 0.0       100.70     LegendNANA
12:00 4.0 -9.2 38 0.0       100.66     LegendNANA
13:00 4.2 -10.1 34 0.0       100.66     LegendNANA
14:00 3.8 -8.3 41 0.0       100.69     LegendNANA
15:00 3.2 -6.6 48 0.2       100.68     LegendNANA
16:00 3.5 -8.8 40 0.0       100.67     LegendNANA
17:00 3.6 -9.2 38 0.0       100.68     LegendNANA
18:00 3.0 -9.3 40 0.2       100.69     LegendNANA
19:00 2.6 -10.6 37 0.0       100.67     LegendNANA
20:00 2.3 -9.9 40 0.0       100.74     LegendNANA
21:00 2.7 -9.6 40 0.0       100.85     LegendNANA
22:00 1.7 -7.1 52 0.0       100.87     LegendNANA
23:00 1.1 -6.6 56 0.0       100.89     LegendNANA

Notes on Data Quality.

Legend

  • E = Estimated
  • M = Missing
  • NA = Not Available*
  • [empty] = Indicates an unobserved value
Date modified: